,,,PA_Meas_PMT16A,,PR_Meas_QMR101_102,,RH_Meas_QMH101,,SR_Meas_QMS101,,TA_Meas_QMH101,,GenWind,,GenWind,
date,time,status,PA,status,PR,status,RH,status,SR,status,TA,status,DirAvg,status,SpdAvg,
2012-07-22, 00:00:04,VALID,1002.13,VALID,0,VALID,93.5773,VALID,0,VALID,23.4866,VALID,31,VALID,0.642187,
2012-07-22, 00:01:04,VALID,1002.15,VALID,0,VALID,93.6612,VALID,0,VALID,23.4866,VALID,36,VALID,0.871094,
2012-07-22, 00:02:04,VALID,1002.12,VALID,0,VALID,93.7833,VALID,0,VALID,23.4866,VALID,36,VALID,0.880469,
2012-07-22, 00:03:04,VALID,1002.14,VALID,0,VALID,93.8443,VALID,0,VALID,23.4458,VALID,36,VALID,0.716016,
2012-07-22, 00:04:04,VALID,1002.11,VALID,0,VALID,93.913,VALID,0,VALID,23.4263,VALID,57,VALID,1.075,
2012-07-22, 00:05:04,VALID,1002.09,VALID,0,VALID,93.9969,VALID,0,VALID,23.428,VALID,63,VALID,0.918359,
2012-07-22, 00:06:04,VALID,1002.08,VALID,0,VALID,94.0122,VALID,0,VALID,23.3872,VALID,61,VALID,0.829297,
2012-07-22, 00:07:04,VALID,1002.12,VALID,0,VALID,93.9664,VALID,0,VALID,23.389,VALID,61,VALID,0.741406,
2012-07-22, 00:08:04,VALID,1002.09,VALID,0,VALID,94.0198,VALID,0,VALID,23.389,VALID,64,VALID,0.560156,
2012-07-22, 00:09:04,VALID,1002.06,VALID,0,VALID,94.0961,VALID,0,VALID,23.3872,VALID,70,VALID,0.355469,
2012-07-22, 00:10:04,VALID,1002.07,VALID,0,VALID,94.1953,VALID,0,VALID,23.4067,VALID,70,VALID,0.548437,
2012-07-22, 00:11:04,VALID,1002.05,VALID,0,VALID,94.2411,VALID,0,VALID,23.428,VALID,70,VALID,0.617578,
2012-07-22, 00:12:04,VALID,1002.08,VALID,0,VALID,94.2487,VALID,0.104696,VALID,23.4067,VALID,70,VALID,0.560938,
2012-07-22, 00:13:04,VALID,1002.04,VALID,0,VALID,94.2182,VALID,0,VALID,23.4067,VALID,70,VALID,0.382031,
2012-07-22, 00:14:04,VALID,1002.01,VALID,0,VALID,94.1724,VALID,0,VALID,23.4067,VALID,70,VALID,0.376172,
2012-07-22, 00:15:04,VALID,1002.01,VALID,0,VALID,94.2029,VALID,0,VALID,23.428,VALID,70,VALID,0.201562,
2012-07-22, 00:16:04,VALID,1002,VALID,0,VALID,94.2105,VALID,0,VALID,23.428,VALID,70,VALID,0.526953,
2012-07-22, 00:17:04,VALID,1001.99,VALID,0,VALID,94.2029,VALID,0,VALID,23.428,VALID,70,VALID,0.445313,
2012-07-22, 00:18:04,VALID,1001.98,VALID,0,VALID,94.2182,VALID,0,VALID,23.4475,VALID,70,VALID,0.588281,
2012-07-22, 00:19:04,VALID,1001.95,VALID,0,VALID,94.1495,VALID,0,VALID,23.4263,VALID,70,VALID,0.569141,
2012-07-22, 00:20:04,VALID,1001.96,VALID,0,VALID,94.1724,VALID,0,VALID,23.4263,VALID,70,VALID,0.631641,
2012-07-22, 00:21:04,VALID,1001.96,VALID,0,VALID,94.1495,VALID,0,VALID,23.4653,VALID,82,VALID,0.701172,
2012-07-22, 00:22:04,VALID,1001.94,VALID,0,VALID,94.1877,VALID,0,VALID,23.4653,VALID,82,VALID,0.589453,
2012-07-22, 00:23:04,VALID,1001.95,VALID,0,VALID,94.1953,VALID,0,VALID,23.5061,VALID,82,VALID,0.578125,
2012-07-22, 00:24:04,VALID,1001.91,VALID,0,VALID,94.3097,VALID,0,VALID,23.5256,VALID,82,VALID,0.545703,
2012-07-22, 00:25:04,VALID,1001.92,VALID,0,VALID,94.386,VALID,0,VALID,23.5451,VALID,109,VALID,0.821875,
2012-07-22, 00:26:04,VALID,1001.89,VALID,0,VALID,94.3708,VALID,0,VALID,23.5238,VALID,114,VALID,0.908594,
2012-07-22, 00:27:04,VALID,1001.88,VALID,0,VALID,94.2716,VALID,0,VALID,23.5256,VALID,106,VALID,1.22187,
2012-07-22, 00:28:04,VALID,1001.85,VALID,0,VALID,94.0503,VALID,0,VALID,23.4848,VALID,104,VALID,1.14336,
2012-07-22, 00:29:04,VALID,1001.86,VALID,0,VALID,93.6307,VALID,0,VALID,23.4653,VALID,102,VALID,1.34687,
2012-07-22, 00:30:04,VALID,1001.81,VALID,0,VALID,93.4094,VALID,0,VALID,23.4653,VALID,100,VALID,1.23789,
2012-07-22, 00:31:04,VALID,1001.81,VALID,0,VALID,93.2645,VALID,0,VALID,23.4866,VALID,99,VALID,1.31836,
2012-07-22, 00:32:04,VALID,1001.8,VALID,0,VALID,93.3484,VALID,0,VALID,23.4866,VALID,90,VALID,0.971484,
2012-07-22, 00:33:04,VALID,1001.81,VALID,0,VALID,93.5086,VALID,0,VALID,23.4866,VALID,93,VALID,1.14023,
2012-07-22, 00:34:04,VALID,1001.83,VALID,0,VALID,93.5468,VALID,0,VALID,23.4671,VALID,93,VALID,0.810938,
2012-07-22, 00:35:04,VALID,1001.82,VALID,0,VALID,93.6307,VALID,0,VALID,23.4671,VALID,93,VALID,0.83125,
2012-07-22, 00:36:04,VALID,1001.79,VALID,0,VALID,93.707,VALID,0,VALID,23.428,VALID,93,VALID,0.8,
2012-07-22, 00:37:04,VALID,1001.79,VALID,0,VALID,93.8138,VALID,0,VALID,23.4475,VALID,93,VALID,0.679297,
2012-07-22, 00:38:04,VALID,1001.77,VALID,0,VALID,93.7985,VALID,0,VALID,23.3872,VALID,77,VALID,0.782031,
2012-07-22, 00:39:04,VALID,1001.76,VALID,0,VALID,93.7909,VALID,0,VALID,23.3677,VALID,73,VALID,0.522266,
2012-07-22, 00:40:04,VALID,1001.76,VALID,0,VALID,93.7299,VALID,0,VALID,23.389,VALID,73,VALID,0.334766,
2012-07-22, 00:41:04,VALID,1001.76,VALID,0,VALID,93.7909,VALID,0,VALID,23.3677,VALID,73,VALID,0.0898438,
2012-07-22, 00:42:04,VALID,1001.74,VALID,0,VALID,93.7146,VALID,0,VALID,23.3482,VALID,73,VALID,0.180078,
2012-07-22, 00:43:04,VALID,1001.76,VALID,0,VALID,93.7299,VALID,0,VALID,23.3695,VALID,73,VALID,0.0367187,
2012-07-22, 00:44:04,VALID,1001.72,VALID,0,VALID,93.6231,VALID,0,VALID,23.35,VALID,73,VALID,0.362109,
2012-07-22, 00:45:04,VALID,1001.74,VALID,0,VALID,93.5849,VALID,0,VALID,23.3695,VALID,73,VALID,0.288281,
2012-07-22, 00:46:04,VALID,1001.75,VALID,0,VALID,93.6536,VALID,0,VALID,23.3695,VALID,73,VALID,0.204297,
2012-07-22, 00:47:04,VALID,1001.76,VALID,0,VALID,93.6688,VALID,0,VALID,23.3482,VALID,73,VALID,0.278906,
2012-07-22, 00:48:04,VALID,1001.75,VALID,0,VALID,93.6078,VALID,0,VALID,23.3695,VALID,73,VALID,0.365234,
2012-07-22, 00:49:04,VALID,1001.73,VALID,0,VALID,93.4552,VALID,0,VALID,23.3287,VALID,73,VALID,0.446094,
2012-07-22, 00:50:04,VALID,1001.76,VALID,0,VALID,93.3637,VALID,0,VALID,23.3305,VALID,73,VALID,0.394531,
2012-07-22, 00:51:04,VALID,1001.74,VALID,0,VALID,93.2721,VALID,0,VALID,23.35,VALID,73,VALID,0.414453,
2012-07-22, 00:52:04,VALID,1001.74,VALID,0,VALID,93.1043,VALID,0,VALID,23.3713,VALID,73,VALID,0.441406,
2012-07-22, 00:53:04,VALID,1001.71,VALID,0,VALID,93.0814,VALID,0,VALID,23.3695,VALID,73,VALID,0.372656,
2012-07-22, 00:54:04,VALID,1001.76,VALID,0,VALID,93.1653,VALID,0,VALID,23.4103,VALID,73,VALID,0.510547,
2012-07-22, 00:55:04,VALID,1001.69,VALID,0,VALID,93.0508,VALID,0,VALID,23.3908,VALID,73,VALID,0.365234,
2012-07-22, 00:56:04,VALID,1001.7,VALID,0,VALID,93.0432,VALID,0,VALID,23.389,VALID,73,VALID,0.310547,
2012-07-22, 00:57:04,VALID,1001.68,VALID,0,VALID,93.0966,VALID,0,VALID,23.389,VALID,73,VALID,0.199219,
2012-07-22, 00:58:04,VALID,1001.64,VALID,0,VALID,93.295,VALID,0,VALID,23.389,VALID,73,VALID,0.219922,
2012-07-22, 00:59:04,VALID,1001.63,VALID,0,VALID,93.3179,VALID,0,VALID,23.389,VALID,73,VALID,0.162109,
2012-07-22, 01:00:04,VALID,1001.66,VALID,0,VALID,93.44,VALID,0,VALID,23.389,VALID,73,VALID,0.155859,
2012-07-22, 01:01:04,VALID,1001.61,VALID,0,VALID,93.5163,VALID,0,VALID,23.389,VALID,73,VALID,0.228125,
2012-07-22, 01:02:04,VALID,1001.6,VALID,0,VALID,93.5086,VALID,0,VALID,23.389,VALID,73,VALID,0.320313,
2012-07-22, 01:03:04,VALID,1001.58,VALID,0,VALID,93.3866,VALID,0,VALID,23.3695,VALID,73,VALID,0.4125,
2012-07-22, 01:04:04,VALID,1001.57,VALID,0,VALID,93.2874,VALID,0,VALID,23.3713,VALID,73,VALID,0.425781,
2012-07-22, 01:05:04,VALID,1001.54,VALID,0,VALID,93.295,VALID,0,VALID,23.389,VALID,73,VALID,0.478125,
2012-07-22, 01:06:04,VALID,1001.51,VALID,0,VALID,93.3713,VALID,0,VALID,23.3482,VALID,73,VALID,0.522266,
2012-07-22, 01:07:04,VALID,1001.51,VALID,0,VALID,93.4323,VALID,0,VALID,23.3695,VALID,73,VALID,0.522656,
2012-07-22, 01:08:04,VALID,1001.48,VALID,0,VALID,93.5849,VALID,0,VALID,23.3482,VALID,73,VALID,0.545703,
2012-07-22, 01:09:04,VALID,1001.47,VALID,0,VALID,93.6765,VALID,0,VALID,23.35,VALID,73,VALID,0.484766,
2012-07-22, 01:10:04,VALID,1001.43,VALID,0,VALID,93.7833,VALID,0,VALID,23.3092,VALID,73,VALID,0.550391,
2012-07-22, 01:11:04,VALID,1001.4,VALID,0,VALID,93.7223,VALID,0,VALID,23.3305,VALID,73,VALID,0.716797,
2012-07-22, 01:12:04,VALID,1001.4,VALID,0,VALID,93.6307,VALID,0,VALID,23.2915,VALID,57,VALID,0.75625,
2012-07-22, 01:13:04,VALID,1001.36,VALID,0,VALID,93.5697,VALID,0,VALID,23.2915,VALID,57,VALID,0.792969,
2012-07-22, 01:14:04,VALID,1001.35,VALID,0,VALID,93.6002,VALID,0,VALID,23.311,VALID,57,VALID,0.692187,
2012-07-22, 01:15:04,VALID,1001.35,VALID,0,VALID,93.6994,VALID,0,VALID,23.2915,VALID,57,VALID,0.715625,
2012-07-22, 01:16:04,VALID,1001.28,VALID,0,VALID,93.7146,VALID,0,VALID,23.2915,VALID,57,VALID,0.69375,
2012-07-22, 01:17:04,VALID,1001.29,VALID,0,VALID,93.6994,VALID,0,VALID,23.2702,VALID,57,VALID,0.775391,
2012-07-22, 01:18:04,VALID,1001.3,VALID,0,VALID,93.6536,VALID,0,VALID,23.2719,VALID,57,VALID,0.812109,
2012-07-22, 01:19:04,VALID,1001.26,VALID,0,VALID,93.6612,VALID,0,VALID,23.2719,VALID,57,VALID,0.764063,
2012-07-22, 01:20:04,VALID,1001.23,VALID,0,VALID,93.6688,VALID,0,VALID,23.2719,VALID,57,VALID,0.591406,
2012-07-22, 01:21:04,VALID,1001.2,VALID,0,VALID,93.7375,VALID,0,VALID,23.2719,VALID,57,VALID,0.527734,
2012-07-22, 01:22:04,VALID,1001.2,VALID,0,VALID,93.8214,VALID,0,VALID,23.2702,VALID,57,VALID,0.494141,
2012-07-22, 01:23:04,VALID,1001.15,VALID,0,VALID,93.8138,VALID,0,VALID,23.2719,VALID,57,VALID,0.551562,
2012-07-22, 01:24:04,VALID,1001.14,VALID,0,VALID,93.8443,VALID,0,VALID,23.2524,VALID,57,VALID,0.542969,
2012-07-22, 01:25:04,VALID,1001.1,VALID,0,VALID,93.8901,VALID,0,VALID,23.2524,VALID,57,VALID,0.517578,
2012-07-22, 01:26:04,VALID,1001.06,VALID,0,VALID,93.9283,VALID,0,VALID,23.2524,VALID,57,VALID,0.502344,
2012-07-22, 01:27:04,VALID,1001.03,VALID,0,VALID,93.9359,VALID,0,VALID,23.2117,VALID,57,VALID,0.537109,
2012-07-22, 01:28:04,VALID,1000.99,VALID,0,VALID,94.0045,VALID,0,VALID,23.2329,VALID,57,VALID,0.592188,
2012-07-22, 01:29:04,VALID,1000.96,VALID,0,VALID,94.0198,VALID,0,VALID,23.1921,VALID,49,VALID,0.657031,
2012-07-22, 01:30:04,VALID,1000.96,VALID,0,VALID,94.0503,VALID,0,VALID,23.2117,VALID,49,VALID,0.544531,
2012-07-22, 01:31:04,VALID,1000.93,VALID,0,VALID,94.058,VALID,0,VALID,23.2134,VALID,49,VALID,0.510156,
2012-07-22, 01:32:04,VALID,1000.91,VALID,0,VALID,94.0274,VALID,0,VALID,23.2117,VALID,49,VALID,0.490234,
2012-07-22, 01:33:04,VALID,1000.89,VALID,0,VALID,93.9054,VALID,0,VALID,23.1939,VALID,49,VALID,0.444922,
2012-07-22, 01:34:04,VALID,1000.87,VALID,0,VALID,93.7985,VALID,0,VALID,23.2134,VALID,49,VALID,0.273828,
2012-07-22, 01:35:04,VALID,1000.85,VALID,0,VALID,93.7528,VALID,0,VALID,23.2117,VALID,49,VALID,0.184766,
2012-07-22, 01:36:04,VALID,1000.88,VALID,0,VALID,93.7909,VALID,0,VALID,23.2524,VALID,49,VALID,0.162109,
2012-07-22, 01:37:04,VALID,1000.82,VALID,0,VALID,93.7528,VALID,0,VALID,23.2524,VALID,49,VALID,0.179688,
2012-07-22, 01:38:04,VALID,1000.83,VALID,0,VALID,93.646,VALID,0,VALID,23.2524,VALID,49,VALID,0.0421875,
2012-07-22, 01:39:04,VALID,1000.84,VALID,0,VALID,93.6307,VALID,0,VALID,23.2524,VALID,49,VALID,0,
2012-07-22, 01:40:04,VALID,1000.82,VALID,0,VALID,93.7223,VALID,0,VALID,23.2719,VALID,49,VALID,0.003125,
2012-07-22, 01:41:04,VALID,1000.81,VALID,0,VALID,93.7146,VALID,0,VALID,23.2312,VALID,49,VALID,0,
2012-07-22, 01:42:04,VALID,1000.84,VALID,0,VALID,93.6688,VALID,0,VALID,23.2524,VALID,49,VALID,0,
2012-07-22, 01:43:04,VALID,1000.85,VALID,0,VALID,93.7375,VALID,0,VALID,23.2312,VALID,49,VALID,0,
2012-07-22, 01:44:04,VALID,1000.85,VALID,0,VALID,93.6994,VALID,0,VALID,23.2312,VALID,49,VALID,0,
2012-07-22, 01:45:04,VALID,1000.83,VALID,0,VALID,93.7146,VALID,0,VALID,23.2524,VALID,49,VALID,0,
2012-07-22, 01:46:04,VALID,1000.8,VALID,0,VALID,93.6994,VALID,0,VALID,23.2524,VALID,49,VALID,0,
2012-07-22, 01:47:04,VALID,1000.78,VALID,0,VALID,93.6841,VALID,0,VALID,23.2312,VALID,49,VALID,0,
2012-07-22, 01:48:04,VALID,1000.77,VALID,0,VALID,93.7833,VALID,0,VALID,23.2524,VALID,49,VALID,0,
2012-07-22, 01:49:04,VALID,1000.79,VALID,0,VALID,93.8367,VALID,0,VALID,23.2524,VALID,49,VALID,0.246094,
2012-07-22, 01:50:04,VALID,1000.78,VALID,0,VALID,93.7985,VALID,0,VALID,23.2524,VALID,49,VALID,0.347266,
2012-07-22, 01:51:04,VALID,1000.76,VALID,0,VALID,93.7299,VALID,0,VALID,23.2524,VALID,49,VALID,0.56875,
2012-07-22, 01:52:04,VALID,1000.75,VALID,0,VALID,93.8138,VALID,0,VALID,23.2524,VALID,49,VALID,0.678906,
2012-07-22, 01:53:04,VALID,1000.75,VALID,0,VALID,93.8901,VALID,0,VALID,23.2507,VALID,26,VALID,0.693359,
2012-07-22, 01:54:04,VALID,1000.74,VALID,0,VALID,94.0274,VALID,0,VALID,23.2312,VALID,26,VALID,0.581641,
2012-07-22, 01:55:04,VALID,1000.73,VALID,0,VALID,94.0885,VALID,0,VALID,23.2312,VALID,26,VALID,0.66875,
2012-07-22, 01:56:04,VALID,1000.71,VALID,0,VALID,94.1571,VALID,0,VALID,23.2329,VALID,26,VALID,0.482812,
2012-07-22, 01:57:04,VALID,1000.68,VALID,0,VALID,94.2258,VALID,0,VALID,23.2329,VALID,26,VALID,0.374219,
2012-07-22, 01:58:04,VALID,1000.68,VALID,0,VALID,94.325,VALID,0,VALID,23.2134,VALID,26,VALID,0.250391,
2012-07-22, 01:59:04,VALID,1000.69,VALID,0,VALID,94.386,VALID,0,VALID,23.1939,VALID,26,VALID,0.196484,
2012-07-22, 02:00:04,VALID,1000.67,VALID,0,VALID,94.4776,VALID,0,VALID,23.2134,VALID,26,VALID,0.230078,
2012-07-22, 02:01:04,VALID,1000.67,VALID,0,VALID,94.5539,VALID,0,VALID,23.2134,VALID,26,VALID,0.00117188,
2012-07-22, 02:02:04,VALID,1000.67,VALID,0,VALID,94.6073,VALID,0,VALID,23.2134,VALID,26,VALID,0,
2012-07-22, 02:03:04,VALID,1000.67,VALID,0,VALID,94.5844,VALID,0,VALID,23.1939,VALID,26,VALID,0.0835937,
2012-07-22, 02:04:04,VALID,1000.67,VALID,0,VALID,94.5386,VALID,0,VALID,23.1939,VALID,26,VALID,0.268359,
2012-07-22, 02:05:04,VALID,1000.69,VALID,0,VALID,94.531,VALID,0,VALID,23.1939,VALID,26,VALID,0,
2012-07-22, 02:06:04,VALID,1000.71,VALID,0,VALID,94.531,VALID,0,VALID,23.1939,VALID,26,VALID,0,
2012-07-22, 02:07:04,VALID,1000.73,VALID,0,VALID,94.5234,VALID,0,VALID,23.1939,VALID,26,VALID,0.108594,
2012-07-22, 02:08:04,VALID,1000.73,VALID,0,VALID,94.4928,VALID,0,VALID,23.1744,VALID,26,VALID,0.523047,
2012-07-22, 02:09:04,VALID,1000.71,VALID,0,VALID,94.4165,VALID,0,VALID,23.1531,VALID,26,VALID,0.554297,
2012-07-22, 02:10:04,VALID,1000.73,VALID,0,VALID,94.4013,VALID,0,VALID,23.1549,VALID,26,VALID,0.608984,
2012-07-22, 02:11:04,VALID,1000.71,VALID,0,VALID,94.4165,VALID,0,VALID,23.1549,VALID,26,VALID,0.535547,
2012-07-22, 02:12:04,VALID,1000.75,VALID,0,VALID,94.5081,VALID,0,VALID,23.1549,VALID,26,VALID,0.536719,
2012-07-22, 02:13:04,VALID,1000.76,VALID,0,VALID,94.5462,VALID,0,VALID,23.1762,VALID,26,VALID,0.526953,
2012-07-22, 02:14:04,VALID,1000.74,VALID,0,VALID,94.5539,VALID,0,VALID,23.1549,VALID,26,VALID,0.409766,
2012-07-22, 02:15:04,VALID,1000.72,VALID,0,VALID,94.5615,VALID,0,VALID,23.1549,VALID,26,VALID,0.376172,
2012-07-22, 02:16:04,VALID,1000.7,VALID,0,VALID,94.6302,VALID,0,VALID,23.1744,VALID,26,VALID,0.424609,
2012-07-22, 02:17:04,VALID,1000.69,VALID,0,VALID,94.6988,VALID,0,VALID,23.1549,VALID,26,VALID,0.553906,
2012-07-22, 02:18:04,VALID,1000.67,VALID,0,VALID,94.7751,VALID,0,VALID,23.1549,VALID,26,VALID,0.627734,
2012-07-22, 02:19:04,VALID,1000.66,VALID,0,VALID,94.8057,VALID,0,VALID,23.1141,VALID,26,VALID,0.428125,
2012-07-22, 02:20:04,VALID,1000.63,VALID,0,VALID,94.8438,VALID,0,VALID,23.1354,VALID,26,VALID,0.340234,
2012-07-22, 02:21:04,VALID,1000.62,VALID,0,VALID,94.9125,VALID,0,VALID,23.1354,VALID,26,VALID,0.239844,
2012-07-22, 02:22:04,VALID,1000.6,VALID,0,VALID,94.9506,VALID,0,VALID,23.1354,VALID,26,VALID,0.126953,
2012-07-22, 02:23:04,VALID,1000.58,VALID,0,VALID,94.9583,VALID,0,VALID,23.1159,VALID,26,VALID,0,
2012-07-22, 02:24:04,VALID,1000.53,VALID,0,VALID,94.9811,VALID,0,VALID,23.0964,VALID,26,VALID,0,
2012-07-22, 02:25:04,VALID,1000.55,VALID,0,VALID,94.9964,VALID,0,VALID,23.0964,VALID,26,VALID,0,
2012-07-22, 02:26:04,VALID,1000.53,VALID,0,VALID,95.0422,VALID,0,VALID,23.0769,VALID,26,VALID,0,
2012-07-22, 02:27:04,VALID,1000.53,VALID,0,VALID,95.1108,VALID,0,VALID,23.0964,VALID,26,VALID,0.182422,
2012-07-22, 02:28:04,VALID,1000.54,VALID,0,VALID,95.149,VALID,0,VALID,23.0769,VALID,26,VALID,0.428906,
2012-07-22, 02:29:04,VALID,1000.55,VALID,0,VALID,95.1795,VALID,0,VALID,23.0769,VALID,26,VALID,0.527344,
2012-07-22, 02:30:04,VALID,1000.55,VALID,0,VALID,95.2482,VALID,0,VALID,23.0556,VALID,26,VALID,0.461719,
2012-07-22, 02:31:04,VALID,1000.5,VALID,0,VALID,95.2863,VALID,0,VALID,23.0769,VALID,26,VALID,0.500391,
2012-07-22, 02:32:04,VALID,1000.54,VALID,0,VALID,95.3016,VALID,0,VALID,23.0769,VALID,26,VALID,0.492578,
2012-07-22, 02:33:04,VALID,1000.53,VALID,0,VALID,95.294,VALID,0,VALID,23.0166,VALID,26,VALID,0.517969,
2012-07-22, 02:34:04,VALID,1000.48,VALID,0,VALID,95.2482,VALID,0,VALID,23.0378,VALID,26,VALID,0.544922,
2012-07-22, 02:35:04,VALID,1000.48,VALID,0,VALID,95.2634,VALID,0,VALID,23.0166,VALID,26,VALID,0.4875,
2012-07-22, 02:36:04,VALID,1000.48,VALID,0,VALID,95.2253,VALID,0,VALID,23.0183,VALID,26,VALID,0.408203,
2012-07-22, 02:37:04,VALID,1000.45,VALID,0,VALID,95.1871,VALID,0,VALID,22.9988,VALID,26,VALID,0.337891,
2012-07-22, 02:38:04,VALID,1000.47,VALID,0,VALID,95.1795,VALID,0.104696,VALID,22.9776,VALID,26,VALID,0.370703,
2012-07-22, 02:39:04,VALID,1000.44,VALID,0,VALID,95.1795,VALID,0,VALID,22.9793,VALID,26,VALID,0.391406,
2012-07-22, 02:40:04,VALID,1000.46,VALID,0,VALID,95.1566,VALID,0,VALID,22.9598,VALID,26,VALID,0.451562,
2012-07-22, 02:41:04,VALID,1000.46,VALID,0,VALID,95.1643,VALID,0,VALID,22.9598,VALID,26,VALID,0.439063,
2012-07-22, 02:42:04,VALID,1000.47,VALID,0,VALID,95.1108,VALID,0,VALID,22.9385,VALID,26,VALID,0.397266,
2012-07-22, 02:43:04,VALID,1000.44,VALID,0,VALID,95.0803,VALID,0,VALID,22.9385,VALID,26,VALID,0.457422,
2012-07-22, 02:44:04,VALID,1000.43,VALID,0,VALID,95.0498,VALID,0,VALID,22.9793,VALID,26,VALID,0.444141,
2012-07-22, 02:45:04,VALID,1000.43,VALID,0,VALID,95.0193,VALID,0.104696,VALID,22.9385,VALID,26,VALID,0.491406,
2012-07-22, 02:46:04,VALID,1000.42,VALID,0,VALID,94.9506,VALID,0,VALID,22.9403,VALID,26,VALID,0.551562,
2012-07-22, 02:47:04,VALID,1000.44,VALID,0,VALID,94.8285,VALID,0.104696,VALID,22.88,VALID,26,VALID,0.7,
2012-07-22, 02:48:04,VALID,1000.43,VALID,0,VALID,94.798,VALID,0,VALID,22.8605,VALID,26,VALID,0.996484,
2012-07-22, 02:49:04,VALID,1000.4,VALID,0,VALID,94.798,VALID,0,VALID,22.802,VALID,26,VALID,0.843359,
2012-07-22, 02:50:04,VALID,1000.4,VALID,0,VALID,94.9048,VALID,0,VALID,22.7825,VALID,26,VALID,0.620703,
2012-07-22, 02:51:04,VALID,1000.38,VALID,0,VALID,95.0574,VALID,0,VALID,22.7825,VALID,26,VALID,0.511719,
2012-07-22, 02:52:04,VALID,1000.35,VALID,0,VALID,95.1643,VALID,0,VALID,22.763,VALID,26,VALID,0.565234,
2012-07-22, 02:53:04,VALID,1000.36,VALID,0,VALID,95.2558,VALID,0,VALID,22.763,VALID,26,VALID,0.567969,
2012-07-22, 02:54:04,VALID,1000.39,VALID,0,VALID,95.3321,VALID,0,VALID,22.7435,VALID,26,VALID,0.517187,
2012-07-22, 02:55:04,VALID,1000.36,VALID,0,VALID,95.3703,VALID,0,VALID,22.7435,VALID,26,VALID,0.453906,
2012-07-22, 02:56:04,VALID,1000.35,VALID,0,VALID,95.4313,VALID,0,VALID,22.724,VALID,26,VALID,0.469922,
2012-07-22, 02:57:04,VALID,1000.4,VALID,0,VALID,95.4694,VALID,0,VALID,22.7045,VALID,26,VALID,0.464453,
2012-07-22, 02:58:04,VALID,1000.38,VALID,0,VALID,95.5076,VALID,0,VALID,22.724,VALID,26,VALID,0.486328,
2012-07-22, 02:59:04,VALID,1000.38,VALID,0,VALID,95.5305,VALID,0,VALID,22.763,VALID,26,VALID,0.476172,
2012-07-22, 03:00:04,VALID,1000.4,VALID,0,VALID,95.5991,VALID,0,VALID,22.763,VALID,26,VALID,0.530078,
2012-07-22, 03:01:04,VALID,1000.41,VALID,0,VALID,95.6068,VALID,0,VALID,22.8037,VALID,26,VALID,0.548828,
2012-07-22, 03:02:04,VALID,1000.41,VALID,0,VALID,95.6297,VALID,0,VALID,22.8232,VALID,26,VALID,0.447266,
2012-07-22, 03:03:04,VALID,1000.39,VALID,0,VALID,95.6373,VALID,0,VALID,22.8427,VALID,137,VALID,0.637891,
2012-07-22, 03:04:04,VALID,1000.41,VALID,0,VALID,95.5991,VALID,0.104696,VALID,22.841,VALID,138,VALID,0.879687,
2012-07-22, 03:05:04,VALID,1000.4,VALID,0,VALID,95.5457,VALID,0,VALID,22.8605,VALID,138,VALID,0.742188,
2012-07-22, 03:06:04,VALID,1000.37,VALID,0,VALID,95.4847,VALID,0.104696,VALID,22.8995,VALID,138,VALID,0.655859,
2012-07-22, 03:07:04,VALID,1000.4,VALID,0,VALID,95.3855,VALID,0,VALID,22.8995,VALID,138,VALID,0.532422,
2012-07-22, 03:08:04,VALID,1000.35,VALID,0,VALID,95.2329,VALID,0,VALID,22.8995,VALID,138,VALID,0.440625,
2012-07-22, 03:09:04,VALID,1000.35,VALID,0,VALID,95.1108,VALID,0,VALID,22.88,VALID,138,VALID,0.474219,
2012-07-22, 03:10:05,VALID,1000.31,VALID,0,VALID,94.9964,VALID,0.104696,VALID,22.88,VALID,138,VALID,0.448828,
2012-07-22, 03:11:05,VALID,1000.32,VALID,0,VALID,94.9277,VALID,0.104696,VALID,22.88,VALID,138,VALID,0.494531,
2012-07-22, 03:12:05,VALID,1000.3,VALID,0,VALID,94.8972,VALID,0.104696,VALID,22.88,VALID,138,VALID,0.263281,
2012-07-22, 03:13:05,VALID,1000.3,VALID,0,VALID,94.8896,VALID,0,VALID,22.88,VALID,138,VALID,0.376563,
2012-07-22, 03:14:05,VALID,1000.28,VALID,0,VALID,94.8896,VALID,0,VALID,22.8995,VALID,138,VALID,0.0472656,
2012-07-22, 03:15:05,VALID,1000.34,VALID,0,VALID,94.8667,VALID,0.104696,VALID,22.8995,VALID,138,VALID,0,
2012-07-22, 03:16:05,VALID,1000.33,VALID,0,VALID,94.8362,VALID,0,VALID,22.88,VALID,138,VALID,0,
2012-07-22, 03:17:05,VALID,1000.34,VALID,0,VALID,94.7828,VALID,0.104696,VALID,22.88,VALID,138,VALID,0,
2012-07-22, 03:18:05,VALID,1000.33,VALID,0,VALID,94.7523,VALID,0,VALID,22.841,VALID,138,VALID,0,
2012-07-22, 03:19:05,VALID,1000.34,VALID,0,VALID,94.7599,VALID,0.104696,VALID,22.8215,VALID,138,VALID,0,
2012-07-22, 03:20:05,VALID,1000.33,VALID,0,VALID,94.7599,VALID,0,VALID,22.8215,VALID,138,VALID,0,
2012-07-22, 03:21:05,VALID,1000.34,VALID,0,VALID,94.7751,VALID,0,VALID,22.802,VALID,138,VALID,0,
2012-07-22, 03:22:05,VALID,1000.31,VALID,0,VALID,94.8209,VALID,0,VALID,22.8037,VALID,138,VALID,0,
2012-07-22, 03:23:05,VALID,1000.31,VALID,0,VALID,94.8362,VALID,0,VALID,22.802,VALID,138,VALID,0,
2012-07-22, 03:24:05,VALID,1000.31,VALID,0,VALID,94.8514,VALID,0,VALID,22.802,VALID,138,VALID,0,
2012-07-22, 03:25:05,VALID,1000.32,VALID,0,VALID,94.8667,VALID,0,VALID,22.8232,VALID,138,VALID,0,
2012-07-22, 03:26:05,VALID,1000.29,VALID,0,VALID,94.8743,VALID,0,VALID,22.8037,VALID,138,VALID,0,
2012-07-22, 03:27:05,VALID,1000.3,VALID,0,VALID,94.9201,VALID,0.104696,VALID,22.763,VALID,138,VALID,0,
2012-07-22, 03:28:05,VALID,1000.33,VALID,0,VALID,94.9125,VALID,0,VALID,22.7842,VALID,138,VALID,0.381641,
2012-07-22, 03:29:05,VALID,1000.27,VALID,0,VALID,94.9125,VALID,0,VALID,22.786,VALID,138,VALID,0.441016,
2012-07-22, 03:30:05,VALID,1000.27,VALID,0,VALID,94.9277,VALID,0,VALID,22.8055,VALID,138,VALID,0.421484,
2012-07-22, 03:31:05,VALID,1000.25,VALID,0,VALID,94.9354,VALID,0,VALID,22.786,VALID,138,VALID,0.5375,
2012-07-22, 03:32:05,VALID,1000.25,VALID,0,VALID,94.9201,VALID,0,VALID,22.7842,VALID,138,VALID,0.335156,
2012-07-22, 03:33:05,VALID,1000.24,VALID,0,VALID,94.8972,VALID,0,VALID,22.7842,VALID,138,VALID,0.572656,
2012-07-22, 03:34:05,VALID,1000.22,VALID,0,VALID,94.8896,VALID,0,VALID,22.8055,VALID,138,VALID,0.467578,
2012-07-22, 03:35:05,VALID,1000.19,VALID,0,VALID,94.8743,VALID,0,VALID,22.763,VALID,138,VALID,0.356641,
2012-07-22, 03:36:05,VALID,1000.2,VALID,0,VALID,94.8209,VALID,0,VALID,22.802,VALID,138,VALID,0.522656,
2012-07-22, 03:37:05,VALID,1000.19,VALID,0,VALID,94.7065,VALID,0,VALID,22.802,VALID,138,VALID,0.452344,
2012-07-22, 03:38:05,VALID,1000.17,VALID,0,VALID,94.4776,VALID,0.104696,VALID,22.802,VALID,105,VALID,0.641797,
2012-07-22, 03:39:05,VALID,1000.15,VALID,0,VALID,94.4165,VALID,0,VALID,22.802,VALID,69,VALID,0.553516,
2012-07-22, 03:40:05,VALID,1000.12,VALID,0,VALID,94.2792,VALID,0.104696,VALID,22.802,VALID,69,VALID,0.398828,
2012-07-22, 03:41:05,VALID,1000.13,VALID,0,VALID,94.1343,VALID,0,VALID,22.8215,VALID,69,VALID,0.448047,
2012-07-22, 03:42:05,VALID,1000.11,VALID,0,VALID,93.8672,VALID,0.104696,VALID,22.7825,VALID,28,VALID,0.803516,
2012-07-22, 03:43:05,VALID,1000.1,VALID,0,VALID,93.7833,VALID,0,VALID,22.7435,VALID,27,VALID,0.894922,
2012-07-22, 03:44:05,VALID,1000.11,VALID,0,VALID,93.8748,VALID,0,VALID,22.685,VALID,27,VALID,0.871484,
2012-07-22, 03:45:05,VALID,1000.09,VALID,0,VALID,93.9893,VALID,0,VALID,22.646,VALID,27,VALID,0.779297,
2012-07-22, 03:46:05,VALID,1000.08,VALID,0,VALID,94.0351,VALID,0,VALID,22.6264,VALID,27,VALID,0.694922,
2012-07-22, 03:47:05,VALID,1000.11,VALID,0,VALID,94.1114,VALID,0,VALID,22.5892,VALID,27,VALID,0.368359,